Погода в Черемхово

Россия / Амурская область     50°23′26″N   127°47′42″E
темп.,
°C
ветер,
м/с
пор.,
м/с
влажн.,
%
обл.,
%
осадки,
мм/ч
давл.,
гПа
погр.,
м
9 марта, вт
вт900:00−4ююз4887100 0.0 1007167
03:00−6зюз3488100 0.0 100545
06:00−7сз379671 0.3 1005166
09:00−8ссз8148785 2.1 1009619
12:00−6ссз9147885 0.0 1014877
15:00−3ссз8147543 0.0 10171073
18:00−4сз615760 0.0 1020575
21:00−7сз512800 0.0 1024226
10 марта, ср
ср1000:00−10зсз34830 0.0 102553
03:00−12зюз22800 0.0 102621
06:00−12ююз337742 0.0 102526
09:00−8ю6118071 0.0 1022312
12:00−2ююз71177100 0.0 1019871
15:000юз61077100 0.0 10161243
18:00−3з478192 0.0 1016139
21:00−5зсз488951 0.0 1019151
11 марта, чт
чт1100:00−7сз49860 0.0 1023184
03:00−10сз47890 0.0 1026121
06:00−13ссз33860 0.0 102823
09:00−11сз24830 0.0 1031143
12:00−6зюз23690 0.0 1030310
15:00−3ю34740 0.0 1028473
18:00−7ююв34880 0.0 102746
21:00−9ююз23870 0.0 102822
12 марта, пт
пт1200:00−9ююз23880 0.0 102821
03:00−10ююз23880 0.0 102822
06:00−10юз22870 0.0 102821
09:00−6ююз23870 0.0 1027122
12:00−2ююз46940 0.0 1025335
15:00+2ююз49984 0.0 1022217
18:000зюз348014 0.0 102049
21:00−3ююз45807 0.0 102178
13 марта, сб
сб1300:00−4юз34760 0.0 101936
03:00−3юз512690 0.0 1019201
06:00−5юз59730 0.0 1017122
09:00−1юз614730 0.0 1016402
12:00+1юз259898 0.0 1015160
15:00+2юз239962 0.0 101358
18:000з23823 0.0 101224
21:00−3ю34821 0.0 101346